Dr. Bill's Marine Weather

Coastal Marine Forecast

       Alabama   Florida   Louisiana   Mississippi

Printer Friendly AL  FL  LA  MS

Data Buoys:   Western Gulf of Mexico    Eastern Gulf of Mexico
**********************************************************************
  Alabama
300 PM CDT THU JUL 30 2015

ALZ051>064-302100-
SOUTHWEST ALABAMA
  
CITY           SKY/WX    TMP DP  RH WIND       PRES   REMARKS
MOBILE         MOSUNNY   95  75  52 N14       29.94F HX 107           
BROOKLEY FIELD MOSUNNY   96  76  52 N9        29.93F HX 109           
EVERGREEN      LGT RAIN  88  76  67 E10       29.93F HX  99           
**********************************************************************
  Florida
300 PM EDT THU JUL 30 2015

FLZ001>010-012>015-112-114-115-302000-
PANHANDLE FLORIDA
  
CITY           SKY/WX    TMP DP  RH WIND       PRES   REMARKS
PENSACOLA      MOSUNNY   95  76  53 N10G17    29.93F HX 108           
PENSACOLA NAS  PTSUNNY   91  77  63 S8        29.93F HX 104           
MILTON NAS     PTSUNNY   94  76  55 CALM      29.93  HX 106           
CRESTVIEW      MOSUNNY   95  77  55 VRB7      29.94F HX 109           
DUKE FIELD     PTSUNNY   96  75  50 NE10      29.93F HX 108           
VALPARAISO     PTSUNNY   91  79  67 SW6       29.93S HX 107           
MARY ESTHER    MOSUNNY   89  77  68 S12       29.92F HX 102           
TRI COUNTY     FAIR      92  79  65 VRB3      29.92F HX 108           
PANAMA CITY    FAIR      91  77  63 VRB6      29.91F HX 104           
TYNDALL AFB    MOSUNNY   88  77  70 SW13      29.93F HX 100           
APALACHICOLA   CLOUDY    82  76  81 S15G28    29.96S THUNDER          

STATION/POSITION SKY/WX   TEMP    WIND        PRES    WAVE   SWELL
                          AIR SEA DIR/SP/G            HT/PER HT/PER
                          (F)     (DEG/KT/KT) (MB)    (FT/S) (FT/S)
30.1N   87.6W              85 86  230/  6/  6 1013.6F   1/ 5   2/ 5
29.2N   88.2W              86 90  360/  4/  6 1015.3F   1/ 4
28.8N   86.0W              81 87  320/ 10/ 12 1015.4S   2/ 4
PANAMA CITY BEAC           84 85  250/  5/  5 1013.8F
CAPE SAN BLAS    NOT AVBL
TOWER C                    79     200/ 17/ 19 1014.3F
28.5N   84.5W              83 85  270/ 12/ 14 1015.0F   3/ 5   2/ 9

**********************************************************************
  Louisiana
300 PM CDT THU JUL 30 2015

LAZ040-048-061>063-065-066-069-302100-
SOUTHEAST LOUISIANA
  
CITY           SKY/WX    TMP DP  RH WIND       PRES   REMARKS
N.O. AUDUBON   NOT AVBL                                               
N.O. INTL ARPT PTSUNNY   96  72  45 N7        29.96F HX 104           
N.O. LAKEFRONT MOSUNNY   90  77  65 W7        29.96F HX 103           
N.O. DOWNTOWN* FAIR      93  75  55 S3        29.97F HX 104           
RESERVE*       FAIR      95  74  50 CALM      29.96F HX 106           
SLIDELL        MOSUNNY   95  80  61 SE5       29.94F HX 114           
BATON ROUGE    MOSUNNY   97  73  45 VRB5      29.95F HX 107           
BOOTHVILLE     PTSUNNY   92  76  59 NE5       29.98F HX 104           
BELLE CHASSE   PTSUNNY   95  76  53 N3        29.96F HX 108           
BOGALUSA*        N/A     86  69  56 N14G22    29.98F THUNDER          
GALLIANO*      NOT AVBL                                               
NEW ROADS*     FAIR     N/A N/A N/A N13G18    29.96F                  
GONZALES*      FAIR      97  76  51 N3        29.95F HX 111           
HAMMOND*       SUNNY     99  72  41 SE3       29.95F HX 107           
HOUMA*         NOT AVBL                                               
PORT FOURCHON* CLEAR     91  73  55 VRB6      29.99F HX 100           

**********************************************************************
  Mississippi
300 PM CDT THU JUL 30 2015

MSZ080>082-302100-
COASTAL MISSISSIPPI
  
CITY           SKY/WX    TMP DP  RH WIND       PRES   REMARKS
BILOXI         PTSUNNY   94  77  57 VRB1      29.93F HX 109           
PASCAGOULA     MOSUNNY   95  75  52 CALM      29.93F HX 107           
GULFPORT       PTSUNNY   96  75  50 N7        29.93F HX 108           
About Us | Coastal Marine Forecast | Offshore Marine Forecast
Gulf Coast Tides | Hourly Weather Observations | Weather Radar
Sea Surface Temperatures | Solar/Lunar Data | Hurricane Advisories | Home
     
USA Logo Dr. Bill's Marine Weather
Last date changed: December 9, 2014 4:08 PM
www.gulfmarineweather.com/hourlyweatherobservations.shtml
Contact Us